Regional Weather Roundup
Issued by NWS

Home | Current Version | Previous Version | Graphics & Text | Print | Product List | Glossary On
Versions: 1 2 3 4 5 6 7 8 9 10 11 12 13 14 15 16 17 18 19 20 21 22 23 24 25 26 27 28 29 30 31 32 33 34 35 36 37 38 39 40 41 42 43 44 45 46 47 48 49 50
000
ASUS43 KFSD 280310
RWRSD

WEATHER ROUNDUP FOR SOUTH DAKOTA
NATIONAL WEATHER SERVICE SIOUX FALLS SD
900 PM CST MON FEB 27 2017

NOTE: "FAIR" INDICATES FEW OR NO CLOUDS BELOW 12,000 FEET WITH NO
SIGNIFICANT WEATHER AND/OR OBSTRUCTIONS TO VISIBILITY.


SDZ001>005-009-010-012>017-280400-
NORTHWEST AND NORTH CENTRAL SOUTH DAKOTA

CITY           SKY/WX    TMP DP  RH WIND       PRES   REMARKS
BUFFALO          N/A     21  17  84 NE13      29.63S WCI   9
FAITH            N/A     23  22  96 NE18      29.71R WCI   9
MOBRIDGE       CLOUDY    28  22  78 NE7       29.74R WCI  21
$$

SDZ012>016-024>037-041>051-057-063-072>074-280400-
SOUTHWEST AND SOUTH CENTRAL SOUTH DAKOTA

CITY           SKY/WX    TMP DP  RH WIND       PRES   REMARKS
RAPID CTY ARPT CLOUDY    28  18  66 N7        29.65S WCI  21
PIERRE         CLOUDY    35  29  78 NE9       29.71R WCI  28
CUSTER         CLOUDY    24  14  65 CALM      29.60R
ELLSWORTH AFB  CLOUDY    31  18  59 NE8       29.65S WCI  24
PHILIP         LGT SNOW  32  32 100 E6        29.70R FOG     WCI  26
PINE RIDGE     LGT SNOW  32  31  96 E6        29.65F FOG     WCI  26
SPEARFISH      FAIR      28  18  64 E8        29.64S WCI  20
WINNER         CLOUDY    36  30  79 S5        29.68R
$$

SDZ004>011-016>023-039-040-280400-
NORTHEAST SOUTH DAKOTA

CITY           SKY/WX    TMP DP  RH WIND       PRES   REMARKS
ABERDEEN       LGT SNOW  31  27  85 N10       29.79R FOG     WCI  22
WATERTOWN      CLEAR     33  26  75 SE7       29.74S WCI  27
BROOKINGS      MOCLDY    37  28  70 SE13      29.74S
SISSETON         N/A     32  30  92 N12       29.78R WCI  23
$$

SDZ017-020-022-023-036>040-048>070-280400-
SOUTHEAST SOUTH DAKOTA

CITY           SKY/WX    TMP DP  RH WIND       PRES   REMARKS
SIOUX FALLS    CLOUDY    37  32  82 E7        29.75F
HURON          CLEAR     32  27  81 SE7       29.72S WCI  26
CHAMBERLAIN    CLOUDY    36  30  79 NE3       29.70R
MITCHELL       CLEAR     34  29  82 SE9       29.71F WCI  27
YANKTON        CLEAR     36  28  75 E8        29.72F
$$

ABBREVIATIONS USED IN REMARKS
   TC - TEMPERATURE IN CELSIUS
  WCI - WIND CHILL INDEX
   HX - HEAT INDEX
  VSB - VISIBILITY




USA.gov is the U.S. government's official web portal to all federal, state and local government web resources and services.